Weather History for Vacaville, CA

Change the Weather History Date:

Saturday, January 14, 2012

  Actual Average Record
Temperature  
Mean Temperature 45 °F -  
Max Temperature 63 °F 54 °F 70 °F (2014)
Min Temperature 27 °F 36 °F 21 °F (2007)
Degree Days  
Heating Degree Days 20    
Moisture  
Dew Point 28 °F    
Average Humidity 64    
Maximum Humidity 89    
Minimum Humidity 29    
Precipitation  
Precipitation 0.00 in - - ()
Sea Level Pressure  
Sea Level Pressure 30.16 in    
Wind  
Wind Speed 1 mph (East)    
Max Wind Speed 5 mph    
Max Gust Speed -    
Visibility 10 miles    
Events      
Averages and records for this station are not official NWS values.
T = Trace of Precipitation, MM = Missing Value Source: NWS Daily Summary

Daily Weather History Graph

Daily Weather History Graph

Search for Another Location

Airport:

Trip Planner

Search our weather history database for the weather conditions in past years. The results will help you decide how hot, cold, wet, or windy it might be!

Date:

Astronomy

Jan. 14, 2012 Rise Set
Actual Time 7:24 AM PST 5:09 PM PST
Civil Twilight 6:54 AM PST 5:38 PM PST
Nautical Twilight 6:22 AM PST 6:11 PM PST
Astronomical Twilight 5:50 AM PST 6:43 PM PST
Moon 11:30 PM PST (1/14) 10:17 AM PST (1/14)
Length of Visible Light 10h 43m
Length of Day
9h 45m
Waning Gibbous, 67% of the Moon is Illuminated
Jan 14
Waning Gibbous
Jan 16
Last Quarter
Jan 22
New
Jan 30
First Quarter
Feb 7
Full

Hourly Weather History & Observations

Time (PST) Temp. Windchill Dew Point Humidity Pressure Visibility Wind Dir Wind Speed Gust Speed Precip Events Conditions
12:53 AM 30.9 °F - 25.0 °F 79% 30.21 in 10.0 mi Calm Calm - N/A   Clear
1:53 AM 32.0 °F - 26.1 °F 79% 30.21 in 10.0 mi Calm Calm - N/A   Clear
2:53 AM 30.9 °F - 26.1 °F 82% 30.22 in 10.0 mi Calm Calm - N/A   Clear
3:53 AM 32.0 °F - 27.0 °F 82% 30.21 in 10.0 mi Calm Calm - N/A   Clear
4:53 AM 30.9 °F - 25.0 °F 79% 30.20 in 10.0 mi Calm Calm - N/A   Clear
5:53 AM 27.0 °F - 24.1 °F 89% 30.20 in 10.0 mi Calm Calm - N/A   Clear
6:53 AM 28.0 °F - 25.0 °F 88% 30.21 in 10.0 mi Calm Calm - N/A   Clear
7:53 AM 30.9 °F - 26.1 °F 82% 30.22 in 10.0 mi Calm Calm - N/A   Clear
8:53 AM 42.1 °F - 28.0 °F 58% 30.23 in 10.0 mi Calm Calm - N/A   Clear
9:53 AM 51.1 °F - 28.9 °F 43% 30.24 in 10.0 mi Calm Calm - N/A   Clear
10:53 AM 55.9 °F - 28.9 °F 36% 30.23 in 10.0 mi NE 4.6 mph - N/A   Clear
11:53 AM 57.9 °F - 30.0 °F 35% 30.21 in 10.0 mi North 4.6 mph - N/A   Clear
12:53 PM 61.0 °F - 30.9 °F 32% 30.18 in 10.0 mi Calm Calm - N/A   Clear
2:53 PM 63.0 °F - 30.0 °F 29% 30.12 in 10.0 mi Calm Calm - N/A   Clear
3:53 PM 63.0 °F - 30.9 °F 30% 30.11 in 10.0 mi South 3.5 mph - N/A   Clear
4:53 PM 57.9 °F - 32.0 °F 37% 30.10 in 10.0 mi SSE 3.5 mph - N/A   Clear
5:53 PM 44.1 °F - 30.0 °F 58% 30.09 in 10.0 mi Calm Calm - N/A   Clear
6:53 PM 41.0 °F - 28.9 °F 62% 30.10 in 10.0 mi Calm Calm - N/A   Clear
7:53 PM 39.0 °F - 28.9 °F 67% 30.10 in 10.0 mi Calm Calm - N/A   Clear
8:53 PM 36.0 °F - 28.0 °F 73% 30.10 in 10.0 mi Calm Calm - N/A   Clear
9:53 PM 33.1 °F 30.0 °F 28.0 °F 82% 30.09 in 10.0 mi East 3.5 mph - N/A   Clear
10:53 PM 33.1 °F - 27.0 °F 78% 30.09 in 9.0 mi Calm Calm - N/A   Clear
11:53 PM 32.0 °F - 27.0 °F 82% 30.08 in 8.0 mi Calm Calm - N/A   Clear